EW5907 Weather Reports


time (UTC)temp
C
wind
direction
speed
KPH
gust
KPH
rain 1hr
cm
rain 24hr
cm
rain mn
cm
humidity
%
barometer
mb
20260504070120 6 326 0.0 0.0 0.00 0.00 0.00 95 1008.7
20260504050508 8 347 0.0 0.0 0.00 0.00 0.00 93 1009.3
20260504050005 8 345 0.0 0.0 0.00 0.00 0.00 93 1009.5
20260504045500 8 348 0.0 0.0 0.00 0.00 0.00 93 1009.5
20260504044957 8 351 0.0 0.0 0.00 0.00 0.00 93 1009.5
20260504044455 8 343 0.0 0.0 0.00 0.00 0.00 93 1009.6
20260504043952 8 342 0.0 0.0 0.00 0.00 0.00 93 1009.4
20260504043449 8 343 0.0 0.0 0.00 0.00 0.00 93 1009.4
20260504042946 8 342 0.0 0.0 0.00 0.00 0.00 93 1009.7
20260504042443 8 342 0.0 0.0 0.00 0.00 0.00 92 1009.4
20260504041940 8 343 0.0 0.0 0.00 0.00 0.00 92 1009.6
20260504041436 8 359 0.0 0.0 0.00 0.00 0.00 92 1009.7
20260504040931 8 343 0.0 0.0 0.00 0.00 0.00 92 1009.7
20260504040430 8 336 0.0 0.0 0.00 0.00 0.00 92 1009.7
20260504035925 8 336 0.0 0.0 0.00 0.03 0.03 92 1009.6
20260504035423 8 336 0.0 0.0 0.00 0.03 0.03 92 1009.5
20260504034919 8 337 0.0 0.0 0.00 0.03 0.03 92 1009.7
20260504034417 8 321 0.0 0.0 0.00 0.03 0.03 91 1009.6
20260504033914 8 333 0.0 0.0 0.00 0.03 0.03 91 1009.6
20260504033412 8 347 0.0 0.0 0.00 0.03 0.03 91 1009.8
20260504032908 8 4 0.0 0.0 0.00 0.03 0.03 90 1009.9
20260504032405 8 299 0.0 0.0 0.00 0.03 0.03 90 1009.8
20260504031902 8 334 0.0 0.0 0.00 0.03 0.03 90 1010.1
20260504031359 8 324 0.0 0.0 0.00 0.03 0.03 89 1010.3
20260504030855 8 324 0.0 0.0 0.00 0.03 0.03 89 1009.9
20260504030353 8 331 0.0 0.0 0.00 0.03 0.03 89 1009.9
20260504025849 8 339 0.0 0.0 0.00 0.03 0.03 88 1009.8
20260504025346 8 337 0.0 0.0 0.00 0.03 0.03 88 1009.8
20260504024842 9 343 0.0 0.0 0.00 0.03 0.03 88 1009.9
20260504024339 9 339 0.0 0.0 0.00 0.03 0.03 87 1009.9
20260504023836 9 351 0.0 0.0 0.00 0.03 0.03 86 1010.2
20260504023333 9 345 0.0 0.0 0.00 0.03 0.03 85 1010.4
20260504022828 9 343 0.0 0.0 0.00 0.03 0.03 85 1010.6
20260504022325 9 335 0.0 0.0 0.00 0.03 0.03 84 1010.8
20260504021821 9 334 0.0 0.0 0.00 0.03 0.03 84 1010.9
20260504021314 10 327 0.0 0.0 0.00 0.03 0.03 83 1010.6
20260504020810 10 323 0.0 0.0 0.00 0.03 0.03 82 1010.5
20260504020307 10 252 0.0 0.0 0.00 0.03 0.03 82 1010.6
20260504015803 10 332 0.0 0.0 0.18 0.03 0.03 81 1011.0
20260504015259 10 290 1.6 1.6 0.18 0.03 0.03 79 1010.8
20260504014755 10 274 1.6 3.2 0.00 0.00 0.00 78 1011.0
20260504014252 10 174 4.8 9.7 0.00 0.00 0.00 76 1011.1
20260504013750 10 319 3.2 4.8 0.00 0.00 0.00 75 1011.2
20260504013247 10 271 0.0 0.0 0.00 0.00 0.00 74 1010.8
20260504012743 11 297 0.0 0.0 0.00 0.00 0.00 74 1010.6
20260504012241 11 309 0.0 1.6 0.00 0.00 0.00 73 1010.5
20260504011738 11 22 0.0 1.6 0.00 0.00 0.00 72 1010.7
20260504011235 11 75 0.0 1.6 0.00 0.00 0.00 72 1010.4
20260504010731 11 56 0.0 0.0 0.00 0.00 0.00 72 1010.3
20260504010227 11 115 0.0 0.0 0.00 0.00 0.00 71 1010.5
20260504005724 11 300 1.6 3.2 0.00 0.00 0.00 69 1010.5
20260504005221 11 282 0.0 1.6 0.00 0.00 0.00 67 1010.3
20260504004718 12 205 3.2 4.8 0.00 0.00 0.00 64 1010.1
20260504004215 12 263 0.0 0.0 0.00 0.00 0.00 62 1010.2
20260504003712 12 179 6.4 12.9 0.00 0.00 0.00 61 1009.9
20260504003209 12 331 6.4 9.7 0.00 0.00 0.00 60 1009.9
20260504002706 12 289 0.0 1.6 0.00 0.00 0.00 57 1009.9
20260504002203 12 280 3.2 4.8 0.00 0.00 0.00 59 1009.9
20260504001701 12 240 0.0 0.0 0.00 0.00 0.00 58 1009.6
20260504001156 12 343 0.0 0.0 0.00 0.00 0.00 59 1009.6
20260504000653 12 18 0.0 0.0 0.00 0.00 0.00 59 1009.5
20260504000151 12 357 0.0 0.0 0.00 0.00 0.00 58 1009.7
20260503235649 12 245 0.0 1.6 0.00 0.00 0.00 57 1009.5
20260503235145 12 241 0.0 0.0 0.00 0.00 0.00 57 1009.5
20260503234644 12 16 0.0 0.0 0.00 0.00 0.00 57 1009.4
20260503234142 12 264 0.0 0.0 0.00 0.00 0.00 58 1009.6
20260503233638 12 303 0.0 0.0 0.00 0.00 0.00 58 1009.8
20260503233134 12 352 1.6 3.2 0.00 0.00 0.00 57 1009.8
20260503232631 12 204 1.6 3.2 0.00 0.00 0.00 56 1010.0
20260503232128 12 339 1.6 3.2 0.00 0.00 0.00 56 1010.2
20260503231626 12 106 0.0 0.0 0.00 0.00 0.00 56 1010.0
20260503231122 12 344 0.0 0.0 0.00 0.00 0.00 54 1010.2
20260503230619 12 307 1.6 1.6 0.00 0.00 0.00 54 1009.9
20260503230117 12 287 1.6 3.2 0.00 0.00 0.00 52 1010.2
20260503225614 12 275 0.0 0.0 0.00 0.00 0.00 53 1010.0
20260503225113 12 324 0.0 0.0 0.00 0.00 0.00 51 1009.8
20260503224611 13 331 0.0 0.0 0.00 0.00 0.00 52 1009.8
20260503224109 13 351 0.0 0.0 0.00 0.00 0.00 51 1009.6
20260503223607 13 353 0.0 0.0 0.00 0.00 0.00 51 1009.8
20260503223102 13 235 1.6 3.2 0.00 0.00 0.00 49 1009.5
20260503222600 13 178 3.2 8.0 0.00 0.00 0.00 48 1009.5
20260503222058 13 39 0.0 0.0 0.00 0.00 0.00 51 1009.6
20260503221556 13 12 0.0 0.0 0.00 0.00 0.00 50 1009.7
20260503221053 13 358 0.0 0.0 0.00 0.00 0.00 50 1009.7
20260503220549 13 247 1.6 3.2 0.00 0.00 0.00 50 1009.7
20260503220046 13 18 0.0 0.0 0.00 0.00 0.00 50 1009.8
20260503215543 13 346 0.0 0.0 0.00 0.00 0.00 52 1009.7
20260503215040 13 337 3.2 4.8 0.00 0.00 0.00 50 1009.8
20260503214539 13 134 1.6 1.6 0.00 0.00 0.00 50 1009.7
20260503214035 13 347 0.0 0.0 0.00 0.00 0.00 52 1009.7
20260503213533 13 294 4.8 9.7 0.00 0.00 0.00 51 1009.7
20260503213029 13 247 0.0 0.0 0.00 0.00 0.00 52 1009.6
20260503212527 13 31 3.2 8.0 0.00 0.00 0.00 52 1009.6
20260503212024 13 201 0.0 0.0 0.00 0.00 0.00 53 1009.8
20260503211521 13 284 1.6 3.2 0.00 0.00 0.00 50 1009.8
20260503211017 13 213 0.0 0.0 0.00 0.00 0.00 50 1009.8
20260503210514 14 211 8.0 12.9 0.00 0.00 0.00 47 1010.0
20260503210009 14 300 4.8 4.8 0.00 0.00 0.00 49 1009.7
20260503205506 13 272 0.0 1.6 0.00 0.00 0.00 49 1010.1
20260503205003 13 309 3.2 4.8 0.00 0.00 0.00 49 1010.1
20260503204500 13 302 0.0 1.6 0.00 0.00 0.00 48 1009.8
20260503203956 14 336 0.0 1.6 0.00 0.00 0.00 47 1010.0
20260503203454 14 318 1.6 3.2 0.00 0.00 0.00 46 1010.1
20260503202950 15 349 0.0 0.0 0.00 0.00 0.00 47 1010.1
20260503202449 14 250 1.6 1.6 0.00 0.00 0.00 48 1010.3
20260503201947 13 35 0.0 1.6 0.00 0.00 0.00 48 1010.1
20260503201444 13 55 8.0 9.7 0.00 0.00 0.00 45 1010.2
20260503200941 13 298 0.0 0.0 0.00 0.00 0.00 48 1010.5
20260503200437 12 292 1.6 3.2 0.00 0.00 0.00 48 1010.3
20260503195934 12 312 4.8 8.0 0.00 0.00 0.00 48 1010.4
20260503195432 12 280 1.6 3.2 0.00 0.00 0.00 48 1010.5
20260503194927 12 178 0.0 1.6 0.00 0.00 0.00 48 1010.5
20260503194425 12 303 0.0 1.6 0.00 0.00 0.00 47 1010.5
20260503193920 12 9 0.0 0.0 0.00 0.00 0.00 48 1010.5
20260503193416 13 261 0.0 1.6 0.00 0.00 0.00 48 1010.5
20260503192912 13 340 1.6 1.6 0.00 0.00 0.00 49 1010.7
20260503192408 13 321 0.0 0.0 0.00 0.00 0.00 46 1010.4
20260503191904 12 286 0.0 0.0 0.00 0.00 0.00 47 1010.7
20260503191402 13 319 1.6 11.3 0.00 0.00 0.00 46 1010.8
20260503190858 13 317 1.6 3.2 0.00 0.00 0.00 45 1010.7
20260503190355 13 229 1.6 3.2 0.00 0.00 0.00 43 1010.8
20260503185852 13 170 4.8 4.8 0.00 0.00 0.00 41 1010.8
20260503185349 13 283 3.2 4.8 0.00 0.00 0.00 44 1010.9
20260503184848 13 282 3.2 3.2 0.00 0.00 0.00 45 1010.8
20260503184344 13 286 1.6 4.8 0.00 0.00 0.00 43 1011.0
20260503183840 12 260 0.0 0.0 0.00 0.00 0.00 43 1011.1
20260503183338 12 245 9.7 12.9 0.00 0.00 0.00 44 1011.2
20260503182835 13 290 1.6 4.8 0.00 0.00 0.00 45 1011.1
20260503182334 13 346 1.6 3.2 0.00 0.00 0.00 44 1011.1
20260503181831 13 201 3.2 4.8 0.00 0.00 0.00 40 1011.3
20260503181328 13 261 1.6 3.2 0.00 0.00 0.00 44 1011.4
20260503180824 13 295 0.0 0.0 0.00 0.00 0.00 44 1011.5
20260503180322 13 359 1.6 1.6 0.00 0.00 0.00 42 1011.5
20260503175818 13 189 0.0 1.6 0.00 0.00 0.00 42 1011.6
20260503175316 13 355 1.6 4.8 0.00 0.00 0.00 44 1011.5
20260503174811 13 302 9.7 11.3 0.00 0.00 0.00 41 1011.7
20260503174310 12 54 8.0 11.3 0.00 0.00 0.00 42 1011.9
20260503173806 12 216 1.6 1.6 0.00 0.00 0.00 40 1012.0
20260503173302 12 344 1.6 1.6 0.00 0.00 0.00 45 1012.0
20260503172759 12 306 4.8 4.8 0.00 0.00 0.00 44 1011.8
20260503172256 12 304 4.8 4.8 0.00 0.00 0.00 43 1012.3
20260503171752 12 277 0.0 0.0 0.00 0.00 0.00 45 1011.9
20260503171249 12 320 0.0 1.6 0.00 0.00 0.00 42 1012.1
20260503170746 12 322 0.0 1.6 0.00 0.00 0.00 46 1012.1
20260503170243 12 191 0.0 0.0 0.00 0.00 0.00 51 1012.2
20260503160205 11 350 3.2 3.2 0.00 0.00 0.00 46 1013.5
20260503150635 10 292 0.0 0.0 0.00 0.00 0.00 49 1013.9
20260503150131 10 2 1.6 3.2 0.00 0.00 0.00 50 1013.7
20260503131019 8 134 0.0 0.0 0.00 0.00 0.00 72 1014.5
20260503130516 7 332 1.6 4.8 0.00 0.00 0.00 71 1014.4
20260503110413 3 5 0.0 0.0 0.00 0.00 0.00 87 1013.8
20260503090303 3 310 0.0 0.0 0.00 0.00 0.00 88 1013.6
20260503081237 3 318 0.0 0.0 0.00 0.00 0.00 92 1013.8
20260503080732 3 320 0.0 0.0 0.00 0.00 0.00 92 1013.7
20260503080230 3 299 0.0 0.0 0.00 0.00 0.00 92 1013.8
20260503072706 3 308 0.0 0.0 0.00 0.00 0.00 93 1013.2
20260503072203 3 329 0.0 0.0 0.00 0.00 0.00 93 1013.5